Regional Weather Roundup
Issued by NWS

Home | Current Version | Previous Version | Text Only | Print | Product List | Glossary On
Versions: 1 2 3 4 5 6 7 8 9 10 11 12 13 14 15 16 17 18 19 20 21 22 23 24 25 26 27 28 29 30 31 32 33 34 35 36 37 38 39 40 41 42 43 44 45 46 47 48 49 50
000
ASCA44 KEWX 242320
RWRMX

LATIN AMERICA AND CARIBBEAN REGIONAL WEATHER ROUNDUP
NATIONAL WEATHER SERVICE AUSTIN/SAN ANTONIO TX
600 PM CDT FRI OCT 24 2014

NOTE: "FAIR" INDICATED FEW OR NO CLOUDS BELOW 12,000 FEET WITH NO
SIGNIFICANT WEATHER AND/OR OBSTRUCTIONS TO VISIBILITY.

BAJA CALIFORNIA

CITY           SKY/WX    TMP DP  RH WIND       PRES   REMARKS
LORETO         SUNNY     90  64  43 NE12      29.86S HX  91
LA PAZ         SUNNY     90  59  35 N7        29.88
MEXICALI       SUNNY     97  37  12 CALM      29.88  HX  92
S.J. DEL CABO  SUNNY     88  70  55 S12       29.90F HX  92
TIJUANA        SUNNY     86  43  22 W6        29.96S

NORTHWESTERN MEXICO

CITY           SKY/WX    TMP DP  RH WIND       PRES   REMARKS
CULIACAN       SUNNY    100  77  47 W14       29.82  HX 116
DURANGO        MOSUNNY   75  45  33 NW6       30.27F
GUAYMAS        SUNNY     88  75  66 S12       29.81  HX  97
HERMOSILLO     SUNNY    100  50  18 CALM      29.90  HX  97
CD. JUAREZ     SUNNY     84  46  26 CALM      30.12S
LOS MOCHIS     SUNNY     88  70  55 W17       29.85F HX  92
OBREGON        SUNNY     97  68  38 SW9       29.82  HX 101

NORTHEASTERN MEXICO

CITY           SKY/WX    TMP DP  RH WIND       PRES   REMARKS
CHIHUAHUA      MOSUNNY   81  48  32 NE7       30.21
MATAMOROS      MOSUNNY   79  72  78 NE7       30.10
MONCLOVA       MOSUNNY   86  64  48 NE9       30.07S
MONTERREY      MOSUNNY   79  63  57 E6        30.09R
NUEVO LAREDO   MOSUNNY   91  63  38 CALM      30.07  HX  92
PIEDRAS NEGRAS MOSUNNY   86  63  45 SE6       30.08F
REYNOSA        MOSUNNY   81  61  50 E6        30.06
SALTILLO       SUNNY     73  57  56 N17       30.24S
TORREON        MOSUNNY   82  50  32 NW7       30.15F
CD. VICTORIA   MOSUNNY   81  64  57 NE9       30.07

WESTERN MEXICO

CITY           SKY/WX    TMP DP  RH WIND       PRES   REMARKS
AGUASCALIENTES MOSUNNY   73  41  31 N12       30.25
COLIMA         PTSUNNY   81  75  83 W14       29.95R
DEL BAJIO      MOSUNNY   73  48  40 NE14      30.28S
GUADALAJARA    MOSUNNY   79  52  38 SE8       30.14
MANZANILLO     MOSUNNY   86  77  74 W12       29.78S HX  97
MAZATLAN       SUNNY     86  73  66 W12       29.81F HX  93
P. VALLARTA    MOSUNNY   88  77  70 SW8       29.82S HX 100
URUAPAN        PTSUNNY   72  63  73 S9        30.15R THUNDER
ZACATECAS      PTSUNNY   73  37  27 NE12      30.31S

CENTRAL MEXICO

CITY           SKY/WX    TMP DP  RH WIND       PRES   REMARKS
CUERNAVACA     PTSUNNY   77  61  57 CALM      30.09R
MEXICO CITY    PTSUNNY   66  46  48 N15       30.33R
MORELIA        MOSUNNY   73  50  43 NE8       30.21
POZA RICA      CLOUDY    73  70  88 CALM      30.09F
PUEBLA         MOSUNNY   64  48  55 N9        30.32R
QUERETARO      PTSUNNY   70  46  43 E17       30.32F
S. LUIS POTOSI MOSUNNY   70  46  43 E7        30.28S
TAMPICO        SUNNY     81  64  57 NE12      30.04F
TOLUCA         PTSUNNY   61  43  51 NE16      30.38R

SOUTHERN MEXICO

CITY           SKY/WX    TMP DP  RH WIND       PRES   REMARKS
ACAPULCO       SUNNY     84  79  84 W7        29.81S HX  96
B. DE HUATULCO PTSUNNY   84  75  74 CALM      29.87  HX  92
OAXACA         PTSUNNY   73  50  43 NW8       30.18R
P. ESCONDIDO   PTSUNNY   84  75  74 SW7       30.00F HX  92
VERACRUZ       CLOUDY    75  68  78 N23G35    29.99S
ZIHUATANEJO    PTSUNNY   86  73  66 W3        29.84S HX  93

YUCATAN PENINSULA

CITY           SKY/WX    TMP DP  RH WIND       PRES   REMARKS
CAMPECHE       MOCLDY    79  73  83 N35       29.87R
CANCUN         MOCLDY    81  75  83 N3        29.82S
CHETUMAL       MOCLDY    81  75  83 CALM      29.79R
CD. DEL CARMEN MOCLDY    82  73  74 N17       29.89
COZUMEL        MOCLDY    75  73  94 NE14      29.82R
MERIDA         MOCLDY    79  70  73 N12       29.89R
MINATITLAN     PTSUNNY   82  68  61 NW21      29.95
TAPACHULA      DRIZZLE   81  79  94 CALM      29.84R
TUX. GUTIERREZ CLOUDY    73  61  64 NW14G25   29.98R
VILLAHERMOSA   MOCLDY    81  73  78 CALM      29.95S

CENTRAL AMERICA

CITY           SKY/WX    TMP DP  RH WIND       PRES   REMARKS
BELIZE CITY    MOCLDY    82  77  83 E2        29.80R HX  91
MANAGUA        PTCLDY    86  73  66 N5        29.74S HX  93

CARIBBEAN

CITY           SKY/WX    TMP DP  RH WIND       PRES   REMARKS
ARUBA          PTCLDY    84  77  79 E10       29.74S HX  94
KINGSTON       PTCLDY    84  75  74 SE10      29.80S HX  92
NASSAU         MOCLDY    75  73  94 SW7       29.75F
SAN JUAN       PTCLDY    84  73  70 SE6       29.88R HX  91
SANTO DOMINGO  PTCLDY    82  73  74 S5        29.83S
ST. CROIX      PTCLDY    82  75  78 E9        29.89S
ST. KITTS      PTCLDY    81  77  89 NE10      29.89S
ST. MAARTEN    PTCLDY    84  75  74 E7        29.89S HX  92

$$




USA.gov is the U.S. government's official web portal to all federal, state and local government web resources and services.